Tracking 20083 objects as of 9-Dec-2019
HD Live streaming from Space Station
objects crossing your sky now

COSMOS 2251 DEB

Track COSMOS 2251 DEB now!
10-day predictions


NORAD ID: 36048
Int'l Code: 1993-036AXK
Perigee: 762.9 km
Apogee: 805.3 km
Inclination: 74.1 °
Period: 100.4 minutes
Semi major axis: 7155 km
RCS: 0.0095 m2 (small)
Launch date: June 16, 1993
Source: Commonwealth of Independent States (former USSR) (CIS)
Launch site: PLESETSK MISSILE AND SPACE COMPLEX (PKMTR)

Note: This is SATELLITE DEBRIS
aabbcc
Your satellite tracking list
Your tracking list is empty




NASA's NSSDC Master Catalog

Two Line Element Set (TLE):
1 36048U 93036AXK 19342.78487365 +.00000075 +00000-0 +35769-4 0  9995
2 36048 074.0583 001.9130 0029674 244.3015 229.6384 14.34432573539929
Source of the keplerian elements: AFSPC